Time,TemperatureF,DewpointF,PressureIn,WindDirection,WindDirectionDegrees,WindSpeedMPH,WindSpeedGustMPH,Humidity,HourlyPrecipIn,Conditions,Clouds,dailyrainin,SolarRadiationWatts/m^2,SoftwareType,DateUTC
2013-06-26 00:01:00,73.9,70.1,29.88,NNE,20,0.0,0.0,88,0.00,,,0.00,0,Wunderground v.1.15,2013-06-26 04:01:00,
2013-06-26 00:02:00,73.9,70.1,29.88,NNE,20,0.0,0.0,88,0.00,,,0.00,0,Wunderground v.1.15,2013-06-26 04:02:00,
2013-06-26 00:03:00,73.9,70.1,29.88,WNW,300,0.0,4.0,88,0.00,,,0.00,0,Wunderground v.1.15,2013-06-26 04:03:00,
2013-06-26 00:08:00,74.5,70.4,29.88,West,263,0.0,4.0,87,0.00,,,0.00,0,Wunderground v.1.15,2013-06-26 04:08:00,
2013-06-26 00:11:00,74.7,70.6,29.88,West,259,1.0,2.0,87,0.00,,,0.00,0,Wunderground v.1.15,2013-06-26 04:11:00,
2013-06-26 00:16:00,75.4,70.9,29.88,West,277,1.0,3.0,86,0.00,,,0.00,0,Wunderground v.1.15,2013-06-26 04:16:00,
2013-06-26 00:22:00,75.7,70.9,29.88,West,265,2.0,2.0,85,0.00,,,0.00,0,Wunderground v.1.15,2013-06-26 04:22:00,
2013-06-26 00:27:00,75.8,71.0,29.88,NW,313,1.0,2.0,85,0.00,,,0.00,0,Wunderground v.1.15,2013-06-26 04:27:00,
2013-06-26 00:32:00,76.3,71.5,29.88,WNW,283,2.0,5.0,85,0.00,,,0.00,0,Wunderground v.1.15,2013-06-26 04:32:00,
2013-06-26 00:37:00,76.7,71.5,29.88,West,268,3.0,7.0,84,0.00,,,0.00,0,Wunderground v.1.15,2013-06-26 04:37:00,
2013-06-26 00:42:00,76.9,71.3,29.88,SW,235,3.0,3.0,83,0.00,,,0.00,0,Wunderground v.1.15,2013-06-26 04:42:00,
2013-06-26 00:48:00,77.0,71.1,29.87,NW,318,3.0,4.0,82,0.00,,,0.00,0,Wunderground v.1.15,2013-06-26 04:48:00,
2013-06-26 00:53:00,76.9,71.0,29.88,West,259,3.0,4.0,82,0.00,,,0.00,0,Wunderground v.1.15,2013-06-26 04:53:00,
2013-06-26 00:58:00,76.8,71.2,29.87,WNW,298,3.0,4.0,83,0.00,,,0.00,0,Wunderground v.1.15,2013-06-26 04:58:00,
2013-06-26 01:03:00,76.6,71.0,29.87,WNW,298,3.0,4.0,83,0.00,,,0.00,0,Wunderground v.1.15,2013-06-26 05:03:00,
2013-06-26 01:08:00,76.4,70.9,29.88,NW,325,4.0,6.0,83,0.00,,,0.00,0,Wunderground v.1.15,2013-06-26 05:08:00,
2013-06-26 01:14:00,76.2,70.7,29.87,NW,311,4.0,8.0,83,0.00,,,0.00,0,Wunderground v.1.15,2013-06-26 05:14:00,
2013-06-26 01:19:00,75.8,70.6,29.88,NW,304,5.0,8.0,84,0.00,,,0.00,0,Wunderground v.1.15,2013-06-26 05:19:00,
2013-06-26 01:24:00,75.7,70.5,29.88,WNW,292,5.0,8.0,84,0.00,,,0.00,0,Wunderground v.1.15,2013-06-26 05:24:00,
2013-06-26 01:29:00,75.5,70.3,29.87,WNW,290,5.0,8.0,84,0.00,,,0.00,0,Wunderground v.1.15,2013-06-26 05:29:00,
2013-06-26 01:34:00,75.3,69.4,29.88,WNW,295,6.0,11.0,82,0.00,,,0.00,0,Wunderground v.1.15,2013-06-26 05:34:00,
2013-06-26 01:39:00,75.1,69.2,29.87,SW,219,7.0,11.0,82,0.00,,,0.00,0,Wunderground v.1.15,2013-06-26 05:39:00,
2013-06-26 01:44:00,74.8,68.9,29.88,WNW,301,7.0,10.0,82,0.00,,,0.00,0,Wunderground v.1.15,2013-06-26 05:44:00,
2013-06-26 01:50:00,74.6,68.7,29.88,West,261,7.0,8.0,82,0.00,,,0.00,0,Wunderground v.1.15,2013-06-26 05:50:00,
2013-06-26 01:55:00,74.3,68.1,29.88,NW,321,7.0,8.0,81,0.00,,,0.00,0,Wunderground v.1.15,2013-06-26 05:55:00,
2013-06-26 02:00:00,74.1,67.9,29.88,West,267,6.0,8.0,81,0.00,,,0.00,0,Wunderground v.1.15,2013-06-26 06:00:00,
2013-06-26 02:06:00,73.9,67.7,29.88,WSW,252,5.0,8.0,81,0.00,,,0.00,0,Wunderground v.1.15,2013-06-26 06:06:00,
2013-06-26 02:11:00,73.7,67.5,29.88,NW,316,5.0,6.0,81,0.00,,,0.00,0,Wunderground v.1.15,2013-06-26 06:11:00,
2013-06-26 02:16:00,73.5,67.3,29.89,WSW,254,4.0,6.0,81,0.00,,,0.00,0,Wunderground v.1.15,2013-06-26 06:16:00,
2013-06-26 02:21:00,73.3,67.1,29.89,West,281,4.0,4.0,81,0.00,,,0.00,0,Wunderground v.1.15,2013-06-26 06:21:00,
2013-06-26 02:26:00,73.1,67.3,29.89,WSW,251,3.0,4.0,82,0.00,,,0.00,0,Wunderground v.1.15,2013-06-26 06:26:00,
2013-06-26 02:32:00,72.9,66.7,29.89,WNW,292,2.0,5.0,81,0.00,,,0.00,0,Wunderground v.1.15,2013-06-26 06:32:00,
2013-06-26 02:37:00,72.9,67.1,29.89,NW,313,2.0,5.0,82,0.00,,,0.00,0,Wunderground v.1.15,2013-06-26 06:37:00,
2013-06-26 02:42:00,72.7,66.9,29.89,WNW,297,2.0,3.0,82,0.00,,,0.00,0,Wunderground v.1.15,2013-06-26 06:42:00,
2013-06-26 02:47:00,72.4,66.6,29.89,NW,305,2.0,4.0,82,0.00,,,0.00,0,Wunderground v.1.15,2013-06-26 06:47:00,
2013-06-26 02:52:00,72.3,66.5,29.89,NW,305,2.0,2.0,82,0.00,,,0.00,0,Wunderground v.1.15,2013-06-26 06:52:00,
2013-06-26 02:57:00,72.2,66.4,29.89,WNW,294,1.0,2.0,82,0.00,,,0.00,0,Wunderground v.1.15,2013-06-26 06:57:00,
2013-06-26 03:02:00,72.2,66.4,29.89,WNW,294,1.0,14.0,82,0.00,,,0.00,0,Wunderground v.1.15,2013-06-26 07:02:00,
2013-06-26 03:07:00,72.3,66.5,29.90,WNW,286,1.0,14.0,82,0.00,,,0.00,0,Wunderground v.1.15,2013-06-26 07:07:00,
2013-06-26 03:12:00,72.5,66.3,29.89,West,278,2.0,14.0,81,0.00,,,0.00,0,Wunderground v.1.15,2013-06-26 07:12:00,
2013-06-26 03:17:00,72.5,66.3,29.89,West,263,2.0,14.0,81,0.00,,,0.00,0,Wunderground v.1.15,2013-06-26 07:17:00,
2013-06-26 03:22:00,72.4,66.2,29.89,WNW,287,1.0,14.0,81,0.00,,,0.00,0,Wunderground v.1.15,2013-06-26 07:22:00,
2013-06-26 03:27:00,72.4,66.2,29.89,NNW,327,2.0,14.0,81,0.00,,,0.00,0,Wunderground v.1.15,2013-06-26 07:27:00,
2013-06-26 03:33:00,72.3,66.1,29.89,WNW,293,3.0,14.0,81,0.00,,,0.00,0,Wunderground v.1.15,2013-06-26 07:33:00,
2013-06-26 03:38:00,72.2,66.0,29.89,NW,313,3.0,14.0,81,0.00,,,0.00,0,Wunderground v.1.15,2013-06-26 07:38:00,
2013-06-26 03:43:00,72.2,66.0,29.89,NW,321,3.0,14.0,81,0.00,,,0.00,0,Wunderground v.1.15,2013-06-26 07:43:00,
2013-06-26 03:48:00,72.2,66.0,29.89,WNW,294,3.0,14.0,81,0.00,,,0.00,0,Wunderground v.1.15,2013-06-26 07:48:00,
2013-06-26 03:53:00,72.1,65.9,29.89,NW,304,2.0,14.0,81,0.00,,,0.00,0,Wunderground v.1.15,2013-06-26 07:53:00,
2013-06-26 03:59:00,72.1,65.9,29.89,WSW,257,2.0,14.0,81,0.00,,,0.00,0,Wunderground v.1.15,2013-06-26 07:59:00,
2013-06-26 04:04:00,72.1,66.3,29.89,NW,304,3.0,14.0,82,0.00,,,0.00,0,Wunderground v.1.15,2013-06-26 08:04:00,
2013-06-26 04:09:00,72.1,65.9,29.89,WNW,299,3.0,14.0,81,0.00,,,0.00,0,Wunderground v.1.15,2013-06-26 08:09:00,
2013-06-26 04:14:00,72.1,65.9,29.89,WNW,289,2.0,14.0,81,0.00,,,0.00,0,Wunderground v.1.15,2013-06-26 08:14:00,
2013-06-26 04:19:00,72.0,65.8,29.89,WNW,289,1.0,14.0,81,0.00,,,0.00,0,Wunderground v.1.15,2013-06-26 08:19:00,
2013-06-26 04:25:00,71.6,65.8,29.90,WNW,289,1.0,14.0,82,0.00,,,0.00,0,Wunderground v.1.15,2013-06-26 08:25:00,
2013-06-26 04:30:00,71.4,66.0,29.90,WNW,292,1.0,14.0,83,0.00,,,0.00,0,Wunderground v.1.15,2013-06-26 08:30:00,
2013-06-26 04:35:00,71.5,65.7,29.90,WNW,286,2.0,14.0,82,0.00,,,0.00,0,Wunderground v.1.15,2013-06-26 08:35:00,
2013-06-26 04:40:00,71.6,65.8,29.90,WNW,290,3.0,3.0,82,0.00,,,0.00,0,Wunderground v.1.15,2013-06-26 08:40:00,
2013-06-26 04:45:00,71.7,65.6,29.89,West,265,3.0,14.0,81,0.00,,,0.00,0,Wunderground v.1.15,2013-06-26 08:45:00,
2013-06-26 04:51:00,71.8,65.7,29.89,WNW,286,2.0,14.0,81,0.00,,,0.00,0,Wunderground v.1.15,2013-06-26 08:51:00,
2013-06-26 04:56:00,71.8,65.7,29.90,WNW,298,2.0,14.0,81,0.00,,,0.00,0,Wunderground v.1.15,2013-06-26 08:56:00,
2013-06-26 05:01:00,71.8,65.7,29.90,WNW,295,2.0,14.0,81,0.00,,,0.00,0,Wunderground v.1.15,2013-06-26 09:01:00,
2013-06-26 05:06:00,71.7,65.6,29.89,WNW,295,1.0,14.0,81,0.00,,,0.00,0,Wunderground v.1.15,2013-06-26 09:06:00,
2013-06-26 05:11:00,71.7,65.6,29.89,WNW,296,1.0,14.0,81,0.00,,,0.00,0,Wunderground v.1.15,2013-06-26 09:11:00,
2013-06-26 05:17:00,71.5,65.4,29.90,WNW,296,2.0,14.0,81,0.00,,,0.00,0,Wunderground v.1.15,2013-06-26 09:17:00,
2013-06-26 05:22:00,71.3,65.5,29.90,WNW,296,1.0,14.0,82,0.00,,,0.00,0,Wunderground v.1.15,2013-06-26 09:22:00,
2013-06-26 05:27:00,71.2,65.4,29.90,WNW,296,1.0,14.0,82,0.00,,,0.00,0,Wunderground v.1.15,2013-06-26 09:27:00,
2013-06-26 05:32:00,71.0,65.2,29.90,WNW,296,0.0,14.0,82,0.00,,,0.00,0,Wunderground v.1.15,2013-06-26 09:32:00,
2013-06-26 05:37:00,70.6,65.2,29.90,WNW,296,0.0,14.0,83,0.00,,,0.00,0,Wunderground v.1.15,2013-06-26 09:37:00,
2013-06-26 05:43:00,69.6,64.9,29.91,West,275,1.0,14.0,85,0.00,,,0.00,7,Wunderground v.1.15,2013-06-26 09:43:00,
2013-06-26 05:48:00,69.4,64.7,29.91,West,280,1.0,14.0,85,0.00,,,0.00,9,Wunderground v.1.15,2013-06-26 09:48:00,
2013-06-26 05:53:00,69.7,65.0,29.91,WNW,288,1.0,14.0,85,0.00,,,0.00,12,Wunderground v.1.15,2013-06-26 09:53:00,
2013-06-26 05:58:00,70.2,65.1,29.91,WNW,286,2.0,14.0,84,0.00,,,0.00,16,Wunderground v.1.15,2013-06-26 09:58:00,
2013-06-26 06:03:00,70.3,64.9,29.91,WNW,298,3.0,14.0,83,0.00,,,0.00,21,Wunderground v.1.15,2013-06-26 10:03:00,
2013-06-26 06:09:00,70.3,64.9,29.91,NW,306,3.0,14.0,83,0.00,,,0.00,26,Wunderground v.1.15,2013-06-26 10:09:00,
2013-06-26 06:14:00,70.2,65.1,29.91,NW,319,3.0,14.0,84,0.00,,,0.00,28,Wunderground v.1.15,2013-06-26 10:14:00,
2013-06-26 06:19:00,70.1,65.0,29.91,WNW,302,3.0,14.0,84,0.00,,,0.00,30,Wunderground v.1.15,2013-06-26 10:19:00,
2013-06-26 06:24:00,70.1,65.0,29.91,NW,307,3.0,14.0,84,0.00,,,0.00,32,Wunderground v.1.15,2013-06-26 10:24:00,
2013-06-26 06:29:00,70.1,65.0,29.91,WNW,285,2.0,14.0,84,0.00,,,0.00,33,Wunderground v.1.15,2013-06-26 10:29:00,
2013-06-26 06:35:00,70.3,65.2,29.92,NW,304,2.0,14.0,84,0.00,,,0.00,40,Wunderground v.1.15,2013-06-26 10:35:00,
2013-06-26 06:40:00,70.4,65.3,29.92,NW,305,2.0,14.0,84,0.00,,,0.00,70,Wunderground v.1.15,2013-06-26 10:40:00,
2013-06-26 06:45:00,70.5,65.4,29.92,NW,308,2.0,14.0,84,0.00,,,0.00,42,Wunderground v.1.15,2013-06-26 10:45:00,
2013-06-26 06:50:00,70.6,65.5,29.92,NW,310,2.0,14.0,84,0.00,,,0.00,83,Wunderground v.1.15,2013-06-26 10:50:00,
2013-06-26 06:55:00,70.7,65.3,29.92,NW,313,2.0,14.0,83,0.00,,,0.00,113,Wunderground v.1.15,2013-06-26 10:55:00,
2013-06-26 07:01:00,71.0,65.6,29.91,NW,309,2.0,14.0,83,0.00,,,0.00,162,Wunderground v.1.15,2013-06-26 11:01:00,
2013-06-26 07:06:00,71.3,65.9,29.91,NW,309,1.0,14.0,83,0.00,,,0.00,202,Wunderground v.1.15,2013-06-26 11:06:00,
2013-06-26 07:11:00,71.6,65.8,29.91,NW,309,1.0,14.0,82,0.00,,,0.00,223,Wunderground v.1.15,2013-06-26 11:11:00,
2013-06-26 07:16:00,71.9,66.1,29.91,NW,307,1.0,14.0,82,0.00,,,0.00,246,Wunderground v.1.15,2013-06-26 11:16:00,
2013-06-26 07:21:00,72.1,66.3,29.91,NW,307,1.0,14.0,82,0.00,,,0.00,262,Wunderground v.1.15,2013-06-26 11:21:00,
2013-06-26 07:27:00,72.4,66.2,29.90,WNW,291,1.0,14.0,81,0.00,,,0.00,62,Wunderground v.1.15,2013-06-26 11:27:00,
2013-06-26 07:32:00,72.5,66.3,29.91,NW,309,2.0,14.0,81,0.00,,,0.00,209,Wunderground v.1.15,2013-06-26 11:32:00,
2013-06-26 07:37:00,72.7,66.5,29.91,NW,304,2.0,14.0,81,0.00,,,0.00,60,Wunderground v.1.15,2013-06-26 11:37:00,
2013-06-26 07:42:00,72.8,66.6,29.91,WNW,293,3.0,14.0,81,0.00,,,0.00,65,Wunderground v.1.15,2013-06-26 11:42:00,
2013-06-26 07:47:00,73.0,66.5,29.91,WNW,303,3.0,14.0,80,0.00,,,0.00,91,Wunderground v.1.15,2013-06-26 11:47:00,
2013-06-26 07:53:00,73.3,66.8,29.91,NW,313,4.0,14.0,80,0.00,,,0.00,81,Wunderground v.1.15,2013-06-26 11:53:00,
2013-06-26 07:58:00,73.3,66.4,29.91,West,269,3.0,14.0,79,0.00,,,0.00,70,Wunderground v.1.15,2013-06-26 11:58:00,
2013-06-26 08:03:00,73.4,66.9,29.91,West,275,2.0,14.0,80,0.00,,,0.00,107,Wunderground v.1.15,2013-06-26 12:03:00,
2013-06-26 08:09:00,73.7,67.5,29.91,WNW,297,2.0,14.0,81,0.00,,,0.00,118,Wunderground v.1.15,2013-06-26 12:09:00,
2013-06-26 08:15:00,74.0,67.1,29.92,West,276,2.0,14.0,79,0.00,,,0.00,128,Wunderground v.1.15,2013-06-26 12:15:00,
2013-06-26 08:20:00,74.3,67.7,29.92,WNW,303,2.0,2.0,80,0.00,,,0.00,186,Wunderground v.1.15,2013-06-26 12:20:00,
2013-06-26 08:21:00,74.3,67.4,29.92,WNW,303,2.0,3.0,79,0.00,,,0.00,200,Wunderground v.1.15,2013-06-26 12:21:00,
2013-06-26 08:26:00,74.6,67.3,29.92,West,271,1.0,14.0,78,0.00,,,0.00,176,Wunderground v.1.15,2013-06-26 12:26:00,
2013-06-26 08:32:00,75.1,68.1,29.92,West,278,2.0,14.0,79,0.00,,,0.00,388,Wunderground v.1.15,2013-06-26 12:32:00,
2013-06-26 08:37:00,75.4,66.9,29.92,West,273,3.0,14.0,75,0.00,,,0.00,181,Wunderground v.1.15,2013-06-26 12:37:00,
2013-06-26 08:42:00,75.5,67.4,29.92,WNW,299,3.0,14.0,76,0.00,,,0.00,193,Wunderground v.1.15,2013-06-26 12:42:00,
2013-06-26 08:47:00,75.4,67.3,29.93,West,263,4.0,14.0,76,0.00,,,0.00,137,Wunderground v.1.15,2013-06-26 12:47:00,
2013-06-26 08:52:00,75.3,67.2,29.93,WNW,293,4.0,14.0,76,0.00,,,0.00,121,Wunderground v.1.15,2013-06-26 12:52:00,
2013-06-26 08:58:00,75.1,67.0,29.92,West,262,3.0,14.0,76,0.00,,,0.00,165,Wunderground v.1.15,2013-06-26 12:58:00,
2013-06-26 09:03:00,75.1,67.0,29.92,West,276,4.0,14.0,76,0.00,,,0.00,199,Wunderground v.1.15,2013-06-26 13:03:00,
2013-06-26 09:08:00,75.2,67.5,29.92,WNW,284,3.0,14.0,77,0.00,,,0.00,204,Wunderground v.1.15,2013-06-26 13:08:00,
2013-06-26 09:13:00,75.3,67.6,29.92,WSW,254,3.0,14.0,77,0.00,,,0.00,223,Wunderground v.1.15,2013-06-26 13:13:00,
2013-06-26 09:18:00,75.3,67.2,29.92,West,259,4.0,14.0,76,0.00,,,0.00,211,Wunderground v.1.15,2013-06-26 13:18:00,
2013-06-26 09:24:00,75.4,67.7,29.91,WNW,303,4.0,14.0,77,0.00,,,0.00,285,Wunderground v.1.15,2013-06-26 13:24:00,
2013-06-26 09:29:00,75.6,67.9,29.92,WNW,286,3.0,14.0,77,0.00,,,0.00,338,Wunderground v.1.15,2013-06-26 13:29:00,
2013-06-26 09:34:00,76.1,68.0,29.91,West,271,3.0,14.0,76,0.00,,,0.00,731,Wunderground v.1.15,2013-06-26 13:34:00,
2013-06-26 09:39:00,76.4,67.9,29.92,WNW,301,4.0,14.0,75,0.00,,,0.00,380,Wunderground v.1.15,2013-06-26 13:39:00,
2013-06-26 09:44:00,76.9,69.1,29.91,WNW,284,5.0,14.0,77,0.00,,,0.00,895,Wunderground v.1.15,2013-06-26 13:44:00,
2013-06-26 09:50:00,77.3,68.4,29.91,NW,325,5.0,14.0,74,0.00,,,0.00,568,Wunderground v.1.15,2013-06-26 13:50:00,
2013-06-26 09:55:00,77.5,68.2,29.91,West,274,4.0,14.0,73,0.00,,,0.00,264,Wunderground v.1.15,2013-06-26 13:55:00,
2013-06-26 10:00:00,77.6,68.7,29.91,WSW,253,4.0,14.0,74,0.00,,,0.00,473,Wunderground v.1.15,2013-06-26 14:00:00,
2013-06-26 10:05:00,78.0,69.0,29.91,WSW,250,4.0,14.0,74,0.00,,,0.00,754,Wunderground v.1.15,2013-06-26 14:05:00,
2013-06-26 10:10:00,78.2,68.8,29.90,West,275,3.0,3.0,73,0.00,,,0.00,281,Wunderground v.1.15,2013-06-26 14:10:00,
2013-06-26 10:16:00,77.9,68.9,29.90,WSW,242,3.0,14.0,74,0.00,,,0.00,367,Wunderground v.1.15,2013-06-26 14:16:00,
2013-06-26 10:21:00,78.1,69.1,29.91,SSW,213,3.0,14.0,74,0.00,,,0.00,330,Wunderground v.1.15,2013-06-26 14:21:00,
2013-06-26 10:26:00,78.2,68.0,29.90,WSW,255,3.0,14.0,71,0.00,,,0.00,323,Wunderground v.1.15,2013-06-26 14:26:00,
2013-06-26 10:31:00,78.3,68.5,29.90,WSW,248,3.0,14.0,72,0.00,,,0.00,272,Wunderground v.1.15,2013-06-26 14:31:00,
2013-06-26 10:36:00,78.3,68.1,29.90,SW,235,3.0,14.0,71,0.00,,,0.00,248,Wunderground v.1.15,2013-06-26 14:36:00,
2013-06-26 10:42:00,78.1,67.9,29.91,WSW,244,3.0,14.0,71,0.00,,,0.00,246,Wunderground v.1.15,2013-06-26 14:42:00,
2013-06-26 10:47:00,78.1,69.1,29.90,West,281,3.0,14.0,74,0.00,,,0.00,278,Wunderground v.1.15,2013-06-26 14:47:00,
2013-06-26 10:52:00,78.2,68.8,29.91,West,259,2.0,14.0,73,0.00,,,0.00,271,Wunderground v.1.15,2013-06-26 14:52:00,
2013-06-26 10:57:00,78.2,68.8,29.91,West,264,2.0,14.0,73,0.00,,,0.00,246,Wunderground v.1.15,2013-06-26 14:57:00,
2013-06-26 11:02:00,78.1,69.1,29.91,SW,222,3.0,14.0,74,0.00,,,0.00,209,Wunderground v.1.15,2013-06-26 15:02:00,
2013-06-26 11:08:00,78.1,68.3,29.91,NW,310,3.0,14.0,72,0.00,,,0.00,188,Wunderground v.1.15,2013-06-26 15:08:00,
2013-06-26 11:13:00,78.0,69.0,29.90,WNW,283,2.0,14.0,74,0.00,,,0.00,188,Wunderground v.1.15,2013-06-26 15:13:00,
2013-06-26 11:18:00,78.1,69.1,29.91,West,263,2.0,14.0,74,0.00,,,0.00,174,Wunderground v.1.15,2013-06-26 15:18:00,
2013-06-26 11:23:00,78.2,69.6,29.91,West,263,1.0,14.0,75,0.00,,,0.00,153,Wunderground v.1.15,2013-06-26 15:23:00,
2013-06-26 11:28:00,78.1,68.7,29.91,West,263,1.0,14.0,73,0.00,,,0.00,178,Wunderground v.1.15,2013-06-26 15:28:00,
2013-06-26 11:34:00,77.9,68.5,29.90,WSW,255,2.0,14.0,73,0.00,,,0.00,251,Wunderground v.1.15,2013-06-26 15:34:00,
2013-06-26 11:39:00,78.0,68.2,29.90,WSW,258,2.0,14.0,72,0.00,,,0.00,332,Wunderground v.1.15,2013-06-26 15:39:00,
2013-06-26 11:44:00,78.1,69.1,29.90,WNW,290,2.0,14.0,74,0.00,,,0.00,385,Wunderground v.1.15,2013-06-26 15:44:00,
2013-06-26 11:49:00,78.4,69.0,29.90,West,279,2.0,14.0,73,0.00,,,0.00,454,Wunderground v.1.15,2013-06-26 15:49:00,
2013-06-26 11:54:00,78.6,69.2,29.91,WNW,288,2.0,14.0,73,0.00,,,0.00,613,Wunderground v.1.15,2013-06-26 15:54:00,
2013-06-26 12:00:00,78.9,69.5,29.90,SW,226,2.0,14.0,73,0.00,,,0.00,585,Wunderground v.1.15,2013-06-26 16:00:00,
2013-06-26 12:05:00,79.4,69.6,29.91,WNW,290,2.0,14.0,72,0.00,,,0.00,712,Wunderground v.1.15,2013-06-26 16:05:00,
2013-06-26 12:10:00,80.0,70.2,29.91,SSW,205,3.0,14.0,72,0.00,,,0.00,1194,Wunderground v.1.15,2013-06-26 16:10:00,
2013-06-26 12:15:00,80.6,69.5,29.91,WSW,244,3.0,14.0,69,0.00,,,0.00,427,Wunderground v.1.15,2013-06-26 16:15:00,
2013-06-26 12:20:00,80.8,70.5,29.91,SW,220,3.0,14.0,71,0.00,,,0.00,540,Wunderground v.1.15,2013-06-26 16:20:00,
2013-06-26 12:26:00,80.2,69.1,29.92,SSW,207,4.0,14.0,69,0.00,,,0.00,401,Wunderground v.1.15,2013-06-26 16:26:00,
2013-06-26 12:31:00,80.2,69.1,29.91,West,267,5.0,14.0,69,0.00,,,0.00,566,Wunderground v.1.15,2013-06-26 16:31:00,
2013-06-26 12:36:00,80.2,69.9,29.91,West,264,4.0,14.0,71,0.00,,,0.00,508,Wunderground v.1.15,2013-06-26 16:36:00,
2013-06-26 12:41:00,80.9,71.0,29.91,WNW,296,3.0,14.0,72,0.00,,,0.00,649,Wunderground v.1.15,2013-06-26 16:41:00,
2013-06-26 12:46:00,81.0,69.9,29.91,WNW,286,3.0,14.0,69,0.00,,,0.00,490,Wunderground v.1.15,2013-06-26 16:46:00,
2013-06-26 12:52:00,80.8,70.5,29.91,WNW,288,4.0,14.0,71,0.00,,,0.00,628,Wunderground v.1.15,2013-06-26 16:52:00,
2013-06-26 12:57:00,81.0,69.9,29.91,West,268,3.0,14.0,69,0.00,,,0.00,543,Wunderground v.1.15,2013-06-26 16:57:00,
2013-06-26 13:02:00,81.4,70.7,29.91,SSW,212,3.0,14.0,70,0.00,,,0.00,550,Wunderground v.1.15,2013-06-26 17:02:00,
2013-06-26 13:07:00,81.6,71.3,29.91,South,182,3.0,14.0,71,0.00,,,0.00,756,Wunderground v.1.15,2013-06-26 17:07:00,
2013-06-26 13:12:00,82.3,70.7,29.91,WSW,242,3.0,14.0,68,0.00,,,0.00,1039,Wunderground v.1.15,2013-06-26 17:12:00,
2013-06-26 13:18:00,82.1,70.1,29.91,WNW,291,4.0,14.0,67,0.00,,,0.00,643,Wunderground v.1.15,2013-06-26 17:18:00,
2013-06-26 13:24:00,82.0,70.4,29.90,SW,218,5.0,14.0,68,0.00,,,0.00,643,Wunderground v.1.15,2013-06-26 17:24:00,
2013-06-26 13:29:00,82.5,70.4,29.90,West,267,4.0,14.0,67,0.00,,,0.00,404,Wunderground v.1.15,2013-06-26 17:29:00,
2013-06-26 13:35:00,82.2,70.6,29.90,WSW,238,4.0,14.0,68,0.00,,,0.00,343,Wunderground v.1.15,2013-06-26 17:35:00,
2013-06-26 13:41:00,81.9,69.4,29.90,WNW,289,4.0,14.0,66,0.00,,,0.00,373,Wunderground v.1.15,2013-06-26 17:41:00,
2013-06-26 13:46:00,81.9,70.3,29.90,WSW,258,4.0,14.0,68,0.00,,,0.00,396,Wunderground v.1.15,2013-06-26 17:46:00,
2013-06-26 13:51:00,82.0,70.4,29.90,WSW,248,3.0,14.0,68,0.00,,,0.00,406,Wunderground v.1.15,2013-06-26 17:51:00,
2013-06-26 13:56:00,82.1,70.9,29.90,WNW,293,3.0,14.0,69,0.00,,,0.00,434,Wunderground v.1.15,2013-06-26 17:56:00,
2013-06-26 14:02:00,82.6,70.5,29.90,WNW,300,3.0,14.0,67,0.00,,,0.00,482,Wunderground v.1.15,2013-06-26 18:02:00,
2013-06-26 14:07:00,82.8,70.3,29.90,WSW,257,3.0,14.0,66,0.00,,,0.00,496,Wunderground v.1.15,2013-06-26 18:07:00,
2013-06-26 14:12:00,83.0,70.0,29.90,WSW,240,3.0,14.0,65,0.00,,,0.00,424,Wunderground v.1.15,2013-06-26 18:12:00,
2013-06-26 14:17:00,83.1,70.1,29.89,WNW,292,3.0,14.0,65,0.00,,,0.00,464,Wunderground v.1.15,2013-06-26 18:17:00,
2013-06-26 14:22:00,83.8,72.1,29.89,WSW,240,2.0,14.0,68,0.00,,,0.00,1106,Wunderground v.1.15,2013-06-26 18:22:00,
2013-06-26 14:28:00,83.7,70.2,29.89,West,278,3.0,14.0,64,0.00,,,0.00,561,Wunderground v.1.15,2013-06-26 18:28:00,
2013-06-26 14:33:00,83.9,72.2,29.89,WNW,289,4.0,14.0,68,0.00,,,0.00,979,Wunderground v.1.15,2013-06-26 18:33:00,
2013-06-26 14:38:00,84.2,71.2,29.90,NW,309,4.0,14.0,65,0.00,,,0.00,979,Wunderground v.1.15,2013-06-26 18:38:00,
2013-06-26 14:43:00,84.1,70.6,29.89,West,269,4.0,14.0,64,0.00,,,0.00,947,Wunderground v.1.15,2013-06-26 18:43:00,
2013-06-26 14:48:00,84.5,71.4,29.89,WNW,288,4.0,14.0,65,0.00,,,0.00,612,Wunderground v.1.15,2013-06-26 18:48:00,
2013-06-26 14:54:00,84.5,70.5,29.88,WNW,299,5.0,14.0,63,0.00,,,0.00,853,Wunderground v.1.15,2013-06-26 18:54:00,
2013-06-26 14:59:00,84.6,72.0,29.88,WSW,242,5.0,14.0,66,0.00,,,0.00,867,Wunderground v.1.15,2013-06-26 18:59:00,
2013-06-26 15:04:00,85.1,72.0,29.88,SSW,211,4.0,14.0,65,0.00,,,0.00,817,Wunderground v.1.15,2013-06-26 19:04:00,
2013-06-26 15:09:00,85.1,71.1,29.88,West,277,5.0,14.0,63,0.00,,,0.00,867,Wunderground v.1.15,2013-06-26 19:09:00,
2013-06-26 15:14:00,85.2,70.7,29.88,NW,321,6.0,14.0,62,0.00,,,0.00,740,Wunderground v.1.15,2013-06-26 19:14:00,
2013-06-26 15:20:00,84.9,70.4,29.88,SSW,202,6.0,6.0,62,0.00,,,0.00,411,Wunderground v.1.15,2013-06-26 19:20:00,
2013-06-26 15:25:00,85.1,71.1,29.87,West,275,5.0,14.0,63,0.00,,,0.00,724,Wunderground v.1.15,2013-06-26 19:25:00,
2013-06-26 15:30:00,85.4,70.9,29.87,SW,232,5.0,5.0,62,0.00,,,0.00,703,Wunderground v.1.15,2013-06-26 19:30:00,
2013-06-26 15:35:00,85.4,70.9,29.87,NW,320,5.0,14.0,62,0.00,,,0.00,707,Wunderground v.1.15,2013-06-26 19:35:00,
2013-06-26 15:40:00,85.6,71.6,29.86,West,273,5.0,5.0,63,0.00,,,0.00,693,Wunderground v.1.15,2013-06-26 19:40:00,
2013-06-26 15:46:00,85.8,70.8,29.86,WSW,253,4.0,14.0,61,0.00,,,0.00,671,Wunderground v.1.15,2013-06-26 19:46:00,
2013-06-26 15:51:00,85.6,71.1,29.86,West,265,5.0,14.0,62,0.00,,,0.00,663,Wunderground v.1.15,2013-06-26 19:51:00,
2013-06-26 15:56:00,85.6,70.1,29.86,West,270,5.0,14.0,60,0.00,,,0.00,691,Wunderground v.1.15,2013-06-26 19:56:00,
2013-06-26 16:01:00,85.7,70.7,29.86,SW,220,4.0,14.0,61,0.00,,,0.00,592,Wunderground v.1.15,2013-06-26 20:01:00,
2013-06-26 16:06:00,85.5,70.5,29.86,WNW,286,5.0,14.0,61,0.00,,,0.00,461,Wunderground v.1.15,2013-06-26 20:06:00,
2013-06-26 16:12:00,85.4,70.4,29.86,NNW,346,6.0,14.0,61,0.00,,,0.00,526,Wunderground v.1.15,2013-06-26 20:12:00,
2013-06-26 16:17:00,85.2,70.2,29.86,West,269,6.0,14.0,61,0.00,,,0.00,355,Wunderground v.1.15,2013-06-26 20:17:00,
2013-06-26 16:22:00,85.1,70.6,29.85,NW,315,5.0,14.0,62,0.00,,,0.00,362,Wunderground v.1.15,2013-06-26 20:22:00,
2013-06-26 16:27:00,85.6,69.6,29.85,WNW,292,5.0,14.0,59,0.00,,,0.00,638,Wunderground v.1.15,2013-06-26 20:27:00,
2013-06-26 16:32:00,85.9,70.4,29.85,NW,324,4.0,14.0,60,0.00,,,0.00,536,Wunderground v.1.15,2013-06-26 20:32:00,
2013-06-26 16:38:00,85.9,70.4,29.84,WNW,302,4.0,14.0,60,0.00,,,0.00,543,Wunderground v.1.15,2013-06-26 20:38:00,
2013-06-26 16:43:00,85.9,70.4,29.84,WNW,288,5.0,14.0,60,0.00,,,0.00,571,Wunderground v.1.15,2013-06-26 20:43:00,
2013-06-26 16:48:00,86.2,71.2,29.84,SW,231,4.0,14.0,61,0.00,,,0.00,598,Wunderground v.1.15,2013-06-26 20:48:00,
2013-06-26 16:53:00,86.6,71.5,29.84,WNW,286,3.0,14.0,61,0.00,,,0.00,573,Wunderground v.1.15,2013-06-26 20:53:00,
2013-06-26 16:58:00,86.4,71.8,29.84,NW,307,3.0,14.0,62,0.00,,,0.00,315,Wunderground v.1.15,2013-06-26 20:58:00,
2013-06-26 17:04:00,85.9,70.9,29.84,WNW,297,3.0,14.0,61,0.00,,,0.00,403,Wunderground v.1.15,2013-06-26 21:04:00,
2013-06-26 17:09:00,86.0,71.0,29.84,NW,312,4.0,14.0,61,0.00,,,0.00,450,Wunderground v.1.15,2013-06-26 21:09:00,
2013-06-26 17:14:00,86.4,71.8,29.84,WNW,284,4.0,14.0,62,0.00,,,0.00,392,Wunderground v.1.15,2013-06-26 21:14:00,
2013-06-26 17:19:00,86.8,70.8,29.84,WNW,289,3.0,14.0,59,0.00,,,0.00,485,Wunderground v.1.15,2013-06-26 21:19:00,
2013-06-26 17:24:00,86.8,70.8,29.84,WNW,303,3.0,14.0,59,0.00,,,0.00,158,Wunderground v.1.15,2013-06-26 21:24:00,
2013-06-26 17:29:00,85.9,70.9,29.84,West,277,4.0,14.0,61,0.00,,,0.00,98,Wunderground v.1.15,2013-06-26 21:29:00,
2013-06-26 17:34:00,85.3,69.8,29.84,WNW,285,4.0,14.0,60,0.00,,,0.00,98,Wunderground v.1.15,2013-06-26 21:34:00,
2013-06-26 17:39:00,84.8,70.3,29.84,WNW,288,4.0,14.0,62,0.00,,,0.00,65,Wunderground v.1.15,2013-06-26 21:39:00,
2013-06-26 17:44:00,84.4,70.9,29.84,NW,322,4.0,14.0,64,0.00,,,0.00,114,Wunderground v.1.15,2013-06-26 21:44:00,
2013-06-26 17:49:00,84.3,70.8,29.84,WNW,290,3.0,14.0,64,0.00,,,0.00,79,Wunderground v.1.15,2013-06-26 21:49:00,
2013-06-26 17:54:00,84.3,71.2,29.83,WNW,284,2.0,14.0,65,0.00,,,0.00,70,Wunderground v.1.15,2013-06-26 21:54:00,
2013-06-26 17:59:00,84.2,70.7,29.84,NW,309,2.0,14.0,64,0.00,,,0.00,56,Wunderground v.1.15,2013-06-26 21:59:00,
2013-06-26 18:05:00,83.9,70.4,29.84,WNW,294,2.0,14.0,64,0.00,,,0.00,37,Wunderground v.1.15,2013-06-26 22:05:00,
2013-06-26 18:10:00,83.8,70.8,29.84,WNW,298,2.0,14.0,65,0.00,,,0.00,44,Wunderground v.1.15,2013-06-26 22:10:00,
2013-06-26 18:15:00,83.7,73.3,29.84,WNW,298,1.0,14.0,71,0.24,,,0.02,151,Wunderground v.1.15,2013-06-26 22:15:00,
2013-06-26 18:20:00,82.9,74.6,29.84,WSW,242,0.0,14.0,76,0.59,,,0.05,230,Wunderground v.1.15,2013-06-26 22:20:00,
2013-06-26 18:25:00,81.4,74.6,29.84,WSW,240,1.0,14.0,80,0.10,,,0.05,142,Wunderground v.1.15,2013-06-26 22:25:00,
2013-06-26 18:31:00,80.0,73.6,29.84,South,173,2.0,14.0,81,0.05,,,0.05,93,Wunderground v.1.15,2013-06-26 22:31:00,
2013-06-26 18:36:00,79.1,73.1,29.84,SSE,162,2.0,14.0,82,0.04,,,0.05,81,Wunderground v.1.15,2013-06-26 22:36:00,
2013-06-26 18:41:00,78.6,72.6,29.84,SSE,159,1.0,14.0,82,0.00,,,0.05,91,Wunderground v.1.15,2013-06-26 22:41:00,
2013-06-26 18:46:00,78.2,72.6,29.83,SE,135,1.0,14.0,83,0.00,,,0.05,114,Wunderground v.1.15,2013-06-26 22:46:00,
2013-06-26 18:51:00,78.2,73.3,29.83,SE,135,1.0,14.0,85,0.00,,,0.05,137,Wunderground v.1.15,2013-06-26 22:51:00,
2013-06-26 18:57:00,79.2,74.3,29.84,SE,135,0.0,14.0,85,0.00,,,0.05,190,Wunderground v.1.15,2013-06-26 22:57:00,
2013-06-26 19:02:00,79.7,74.8,29.84,SE,136,0.0,14.0,85,0.00,,,0.05,183,Wunderground v.1.15,2013-06-26 23:02:00,
2013-06-26 19:07:00,79.6,74.3,29.84,WSW,257,2.0,14.0,84,0.00,,,0.05,142,Wunderground v.1.15,2013-06-26 23:07:00,
2013-06-26 19:12:00,79.4,74.5,29.84,West,272,1.0,14.0,85,0.00,,,0.05,102,Wunderground v.1.15,2013-06-26 23:12:00,
2013-06-26 19:17:00,79.1,74.2,29.84,West,272,1.0,14.0,85,0.00,,,0.05,83,Wunderground v.1.15,2013-06-26 23:17:00,
2013-06-26 19:23:00,78.9,74.4,29.84,West,272,1.0,14.0,86,0.00,,,0.05,70,Wunderground v.1.15,2013-06-26 23:23:00,
2013-06-26 19:28:00,79.0,74.5,29.84,West,272,0.0,14.0,86,0.00,,,0.05,60,Wunderground v.1.15,2013-06-26 23:28:00,
2013-06-26 19:33:00,79.2,74.6,29.84,West,272,0.0,14.0,86,0.00,,,0.05,54,Wunderground v.1.15,2013-06-26 23:33:00,
2013-06-26 19:38:00,78.9,74.4,29.85,West,272,0.0,14.0,86,0.00,,,0.05,51,Wunderground v.1.15,2013-06-26 23:38:00,
2013-06-26 19:44:00,78.7,74.2,29.85,West,272,0.0,14.0,86,0.00,,,0.05,49,Wunderground v.1.15,2013-06-26 23:44:00,
2013-06-26 19:49:00,78.8,74.6,29.85,West,272,0.0,14.0,87,0.00,,,0.05,47,Wunderground v.1.15,2013-06-26 23:49:00,
2013-06-26 19:54:00,78.9,74.4,29.85,West,272,0.0,14.0,86,0.00,,,0.05,40,Wunderground v.1.15,2013-06-26 23:54:00,
2013-06-26 19:59:00,79.0,74.5,29.85,West,272,0.0,14.0,86,0.00,,,0.05,37,Wunderground v.1.15,2013-06-26 23:59:00,
2013-06-26 20:04:00,79.0,74.5,29.85,West,272,0.0,14.0,86,0.00,,,0.05,32,Wunderground v.1.15,2013-06-27 00:04:00,
2013-06-26 20:10:00,78.5,74.0,29.85,West,272,0.0,14.0,86,0.00,,,0.05,23,Wunderground v.1.15,2013-06-27 00:10:00,
2013-06-26 20:15:00,78.4,73.9,29.85,West,272,0.0,14.0,86,0.00,,,0.05,16,Wunderground v.1.15,2013-06-27 00:15:00,
2013-06-26 20:20:00,78.3,73.8,29.85,West,272,0.0,14.0,86,0.00,,,0.05,12,Wunderground v.1.15,2013-06-27 00:20:00,
2013-06-26 20:25:00,78.2,74.0,29.85,West,272,0.0,14.0,87,0.00,,,0.05,11,Wunderground v.1.15,2013-06-27 00:25:00,
2013-06-26 20:30:00,78.0,73.5,29.85,West,272,0.0,14.0,86,0.00,,,0.05,5,Wunderground v.1.15,2013-06-27 00:30:00,
2013-06-26 20:35:00,77.8,73.3,29.85,West,272,0.0,14.0,86,0.00,,,0.05,0,Wunderground v.1.15,2013-06-27 00:35:00,
2013-06-26 20:40:00,77.3,73.1,29.85,West,272,0.0,14.0,87,0.00,,,0.05,0,Wunderground v.1.15,2013-06-27 00:40:00,
2013-06-26 20:45:00,76.8,72.6,29.85,West,272,0.0,14.0,87,0.00,,,0.05,0,Wunderground v.1.15,2013-06-27 00:45:00,
2013-06-26 20:51:00,76.3,72.1,29.85,SSW,212,1.0,14.0,87,0.00,,,0.05,0,Wunderground v.1.15,2013-06-27 00:51:00,
2013-06-26 20:56:00,75.9,71.8,29.85,SSW,193,1.0,14.0,87,0.00,,,0.05,0,Wunderground v.1.15,2013-06-27 00:56:00,
2013-06-26 21:01:00,75.8,71.7,29.85,South,174,1.0,14.0,87,0.00,,,0.05,0,Wunderground v.1.15,2013-06-27 01:01:00,
2013-06-26 21:07:00,75.7,71.6,29.85,SSE,157,1.0,14.0,87,0.00,,,0.05,0,Wunderground v.1.15,2013-06-27 01:07:00,
2013-06-26 21:12:00,75.6,71.5,29.86,SSE,157,1.0,1.0,87,0.00,,,0.05,0,Wunderground v.1.15,2013-06-27 01:12:00,
2013-06-26 21:17:00,75.6,71.5,29.86,SSE,157,0.0,1.0,87,0.00,,,0.05,0,Wunderground v.1.15,2013-06-27 01:17:00,
2013-06-26 21:23:00,75.6,71.5,29.86,SSE,157,0.0,0.0,87,0.00,,,0.05,0,Wunderground v.1.15,2013-06-27 01:23:00,
2013-06-26 21:28:00,75.5,71.4,29.86,SSE,157,0.0,0.0,87,0.00,,,0.05,0,Wunderground v.1.15,2013-06-27 01:28:00,
2013-06-26 21:33:00,75.3,71.2,29.86,SSE,157,0.0,0.0,87,0.00,,,0.05,0,Wunderground v.1.15,2013-06-27 01:33:00,
2013-06-26 21:38:00,75.2,71.1,29.86,SSE,157,0.0,0.0,87,0.00,,,0.05,0,Wunderground v.1.15,2013-06-27 01:38:00,
2013-06-26 21:43:00,74.9,70.8,29.86,SSE,157,0.0,0.0,87,0.00,,,0.05,0,Wunderground v.1.15,2013-06-27 01:43:00,
2013-06-26 21:49:00,74.8,70.7,29.86,SSE,158,1.0,2.0,87,0.00,,,0.05,0,Wunderground v.1.15,2013-06-27 01:49:00,
2013-06-26 21:54:00,74.6,70.1,29.86,NW,320,2.0,2.0,86,0.00,,,0.05,0,Wunderground v.1.15,2013-06-27 01:54:00,
2013-06-26 21:59:00,74.6,70.1,29.86,NW,320,1.0,1.0,86,0.00,,,0.05,0,Wunderground v.1.15,2013-06-27 01:59:00,
2013-06-26 22:05:00,74.4,69.9,29.86,NW,320,0.0,3.0,86,0.00,,,0.05,0,Wunderground v.1.15,2013-06-27 02:05:00,
2013-06-26 22:11:00,74.2,70.1,29.87,NW,320,0.0,3.0,87,0.00,,,0.05,0,Wunderground v.1.15,2013-06-27 02:11:00,
2013-06-26 22:16:00,74.0,69.9,29.87,NW,320,0.0,3.0,87,0.00,,,0.05,0,Wunderground v.1.15,2013-06-27 02:16:00,
2013-06-26 22:21:00,73.9,69.8,29.87,NW,320,0.0,3.0,87,0.00,,,0.05,0,Wunderground v.1.15,2013-06-27 02:21:00,
2013-06-26 22:26:00,73.9,69.4,29.87,NW,320,0.0,3.0,86,0.00,,,0.05,0,Wunderground v.1.15,2013-06-27 02:26:00,
2013-06-26 22:31:00,73.9,69.4,29.87,NW,320,0.0,3.0,86,0.00,,,0.05,0,Wunderground v.1.15,2013-06-27 02:31:00,
2013-06-26 22:36:00,73.9,69.4,29.87,NW,320,0.0,3.0,86,0.00,,,0.05,0,Wunderground v.1.15,2013-06-27 02:36:00,
2013-06-26 22:42:00,74.0,69.5,29.87,NW,320,0.0,3.0,86,0.00,,,0.05,0,Wunderground v.1.15,2013-06-27 02:42:00,
2013-06-26 22:47:00,74.0,69.5,29.87,NW,320,0.0,3.0,86,0.00,,,0.05,0,Wunderground v.1.15,2013-06-27 02:47:00,
2013-06-26 22:52:00,73.8,69.3,29.87,NW,320,0.0,3.0,86,0.00,,,0.05,0,Wunderground v.1.15,2013-06-27 02:52:00,
2013-06-26 22:57:00,73.7,69.2,29.87,NW,320,0.0,3.0,86,0.00,,,0.05,0,Wunderground v.1.15,2013-06-27 02:57:00,
2013-06-26 23:03:00,73.7,69.2,29.87,NW,320,0.0,3.0,86,0.00,,,0.05,0,Wunderground v.1.15,2013-06-27 03:03:00,
2013-06-26 23:08:00,73.6,69.2,29.86,NW,320,0.0,3.0,86,0.00,,,0.05,0,Wunderground v.1.15,2013-06-27 03:08:00,
2013-06-26 23:13:00,73.5,69.1,29.87,NW,320,0.0,3.0,86,0.00,,,0.05,0,Wunderground v.1.15,2013-06-27 03:13:00,
2013-06-26 23:18:00,73.4,69.0,29.87,NW,320,0.0,3.0,86,0.00,,,0.05,0,Wunderground v.1.15,2013-06-27 03:18:00,
2013-06-26 23:23:00,73.3,68.9,29.87,NW,320,0.0,3.0,86,0.00,,,0.05,0,Wunderground v.1.15,2013-06-27 03:23:00,
2013-06-26 23:28:00,73.1,68.7,29.87,NW,320,0.0,3.0,86,0.00,,,0.05,0,Wunderground v.1.15,2013-06-27 03:28:00,
2013-06-26 23:34:00,73.0,68.6,29.87,NW,320,0.0,3.0,86,0.00,,,0.05,0,Wunderground v.1.15,2013-06-27 03:34:00,
2013-06-26 23:39:00,73.0,68.6,29.87,NW,320,0.0,3.0,86,0.00,,,0.05,0,Wunderground v.1.15,2013-06-27 03:39:00,
2013-06-26 23:40:00,73.0,68.6,29.87,NW,320,0.0,3.0,86,0.00,,,0.05,0,Wunderground v.1.15,2013-06-27 03:40:00,
2013-06-26 23:45:00,72.9,68.5,29.87,NW,320,0.0,3.0,86,0.00,,,0.05,0,Wunderground v.1.15,2013-06-27 03:45:00,
2013-06-26 23:50:00,72.9,68.5,29.87,NW,320,0.0,3.0,86,0.00,,,0.05,0,Wunderground v.1.15,2013-06-27 03:50:00,
2013-06-26 23:55:00,72.9,68.5,29.87,NW,320,0.0,3.0,86,0.00,,,0.05,0,Wunderground v.1.15,2013-06-27 03:55:00,